Time,TemperatureF,DewpointF,PressureIn,WindDirection,WindDirectionDegrees,WindSpeedMPH,WindSpeedGustMPH,Humidity,HourlyPrecipIn,Conditions,Clouds,dailyrainin,SoftwareType,DateUTC
2013-04-01 00:01:00,49.6,47.6,29.75,SW,224,0.0,0.0,93,0.00,,,0.00,WUHU216DAVISVP2,2013-04-01 04:01:00,
2013-04-01 00:06:00,49.5,47.5,29.75,SW,224,0.0,0.0,93,0.00,,,0.00,WUHU216DAVISVP2,2013-04-01 04:06:00,
2013-04-01 00:11:00,49.4,47.4,29.75,SW,224,0.0,0.0,93,0.00,,,0.00,WUHU216DAVISVP2,2013-04-01 04:11:00,
2013-04-01 00:17:00,49.3,47.6,29.75,SW,224,0.0,0.0,94,0.00,,,0.00,WUHU216DAVISVP2,2013-04-01 04:17:00,
2013-04-01 00:22:00,49.2,47.5,29.75,SW,224,0.0,0.0,94,0.01,,,0.01,WUHU216DAVISVP2,2013-04-01 04:22:00,
2013-04-01 00:27:00,49.2,47.5,29.75,SW,224,0.0,1.0,94,0.01,,,0.01,WUHU216DAVISVP2,2013-04-01 04:27:00,
2013-04-01 00:32:00,49.1,47.4,29.75,SW,224,0.0,1.0,94,0.01,,,0.01,WUHU216DAVISVP2,2013-04-01 04:32:00,
2013-04-01 00:37:00,49.0,47.3,29.75,SW,224,0.0,1.0,94,0.01,,,0.01,WUHU216DAVISVP2,2013-04-01 04:37:00,
2013-04-01 00:42:00,48.8,47.1,29.75,SW,224,0.0,1.0,94,0.01,,,0.01,WUHU216DAVISVP2,2013-04-01 04:42:00,
2013-04-01 00:47:00,48.7,47.0,29.75,SW,224,0.0,1.0,94,0.01,,,0.01,WUHU216DAVISVP2,2013-04-01 04:47:00,
2013-04-01 00:52:00,48.3,46.6,29.75,SW,224,0.0,1.0,94,0.01,,,0.01,WUHU216DAVISVP2,2013-04-01 04:52:00,
2013-04-01 00:57:00,47.9,46.2,29.75,SW,224,0.0,1.0,94,0.01,,,0.01,WUHU216DAVISVP2,2013-04-01 04:57:00,
2013-04-01 01:02:00,47.7,46.0,29.75,SW,224,0.0,1.0,94,0.01,,,0.01,WUHU216DAVISVP2,2013-04-01 05:02:00,
2013-04-01 01:07:00,47.6,46.2,29.75,SW,224,0.0,1.0,95,0.01,,,0.01,WUHU216DAVISVP2,2013-04-01 05:07:00,
2013-04-01 01:12:00,47.7,46.3,29.74,SW,224,0.0,1.0,95,0.01,,,0.01,WUHU216DAVISVP2,2013-04-01 05:12:00,
2013-04-01 01:17:00,47.7,46.3,29.74,SW,224,0.0,0.0,95,0.01,,,0.01,WUHU216DAVISVP2,2013-04-01 05:17:00,
2013-04-01 01:22:00,47.5,46.1,29.74,SW,224,0.0,0.0,95,0.00,,,0.01,WUHU216DAVISVP2,2013-04-01 05:22:00,
2013-04-01 01:27:00,47.3,45.9,29.74,SW,224,0.0,0.0,95,0.00,,,0.01,WUHU216DAVISVP2,2013-04-01 05:27:00,
2013-04-01 01:32:00,47.3,45.9,29.74,SW,224,0.0,0.0,95,0.00,,,0.01,WUHU216DAVISVP2,2013-04-01 05:32:00,
2013-04-01 01:37:00,47.2,46.1,29.74,SW,224,0.0,0.0,96,0.00,,,0.01,WUHU216DAVISVP2,2013-04-01 05:37:00,
2013-04-01 01:42:00,47.1,45.7,29.74,SW,224,0.0,1.0,95,0.00,,,0.01,WUHU216DAVISVP2,2013-04-01 05:42:00,
2013-04-01 01:47:00,46.9,45.5,29.74,SW,224,0.0,1.0,95,0.00,,,0.01,WUHU216DAVISVP2,2013-04-01 05:47:00,
2013-04-01 01:52:00,46.8,45.7,29.74,SW,224,0.0,1.0,96,0.00,,,0.01,WUHU216DAVISVP2,2013-04-01 05:52:00,
2013-04-01 01:57:00,46.6,45.5,29.74,SW,224,0.0,1.0,96,0.00,,,0.01,WUHU216DAVISVP2,2013-04-01 05:57:00,
2013-04-01 02:02:00,46.7,45.6,29.73,SW,224,0.0,1.0,96,0.00,,,0.01,WUHU216DAVISVP2,2013-04-01 06:02:00,
2013-04-01 02:07:00,47.0,45.9,29.74,SW,224,0.0,1.0,96,0.00,,,0.01,WUHU216DAVISVP2,2013-04-01 06:07:00,
2013-04-01 02:12:00,46.9,45.8,29.74,SW,224,0.0,1.0,96,0.00,,,0.01,WUHU216DAVISVP2,2013-04-01 06:12:00,
2013-04-01 02:17:00,46.7,45.6,29.74,SW,222,0.0,2.0,96,0.00,,,0.01,WUHU216DAVISVP2,2013-04-01 06:17:00,
2013-04-01 02:22:00,46.3,44.9,29.74,SW,222,0.0,2.0,95,0.00,,,0.01,WUHU216DAVISVP2,2013-04-01 06:22:00,
2013-04-01 02:27:00,45.9,44.8,29.73,SW,222,0.0,2.0,96,0.00,,,0.01,WUHU216DAVISVP2,2013-04-01 06:27:00,
2013-04-01 02:32:00,45.8,44.7,29.73,SW,222,0.0,2.0,96,0.00,,,0.01,WUHU216DAVISVP2,2013-04-01 06:32:00,
2013-04-01 02:37:00,45.9,44.8,29.73,SW,222,0.0,1.0,96,0.00,,,0.01,WUHU216DAVISVP2,2013-04-01 06:37:00,
2013-04-01 02:42:00,46.1,45.0,29.73,SW,222,0.0,1.0,96,0.00,,,0.01,WUHU216DAVISVP2,2013-04-01 06:42:00,
2013-04-01 02:47:00,46.2,45.1,29.73,SW,222,0.0,1.0,96,0.00,,,0.01,WUHU216DAVISVP2,2013-04-01 06:47:00,
2013-04-01 02:52:00,46.2,45.1,29.73,SW,222,0.0,1.0,96,0.00,,,0.01,WUHU216DAVISVP2,2013-04-01 06:52:00,
2013-04-01 02:57:00,45.9,44.8,29.73,SW,222,0.0,1.0,96,0.00,,,0.01,WUHU216DAVISVP2,2013-04-01 06:57:00,
2013-04-01 03:02:00,45.8,44.7,29.73,SW,222,0.0,1.0,96,0.00,,,0.01,WUHU216DAVISVP2,2013-04-01 07:02:00,
2013-04-01 03:07:00,45.6,44.5,29.73,SW,222,0.0,0.0,96,0.00,,,0.01,WUHU216DAVISVP2,2013-04-01 07:07:00,
2013-04-01 03:12:00,45.4,44.3,29.73,SW,222,0.0,1.0,96,0.00,,,0.01,WUHU216DAVISVP2,2013-04-01 07:12:00,
2013-04-01 03:17:00,45.2,44.1,29.73,SW,222,0.0,1.0,96,0.00,,,0.01,WUHU216DAVISVP2,2013-04-01 07:17:00,
2013-04-01 03:22:00,45.1,44.0,29.73,SW,222,0.0,1.0,96,0.00,,,0.01,WUHU216DAVISVP2,2013-04-01 07:22:00,
2013-04-01 03:27:00,45.3,44.5,29.73,SW,222,0.0,1.0,97,0.00,,,0.01,WUHU216DAVISVP2,2013-04-01 07:27:00,
2013-04-01 03:32:00,44.9,43.8,29.74,SSW,212,2.0,2.0,96,0.00,,,0.01,WUHU216DAVISVP2,2013-04-01 07:32:00,
2013-04-01 03:37:00,44.3,43.2,29.74,SSW,212,0.0,2.0,96,0.00,,,0.01,WUHU216DAVISVP2,2013-04-01 07:37:00,
2013-04-01 03:42:00,43.8,42.7,29.74,SSW,212,0.0,2.0,96,0.00,,,0.01,WUHU216DAVISVP2,2013-04-01 07:42:00,
2013-04-01 03:48:00,43.7,42.6,29.73,SSW,212,0.0,2.0,96,0.00,,,0.01,WUHU216DAVISVP2,2013-04-01 07:48:00,
2013-04-01 03:53:00,44.0,43.2,29.74,SSW,212,0.0,2.0,97,0.00,,,0.01,WUHU216DAVISVP2,2013-04-01 07:53:00,
2013-04-01 03:58:00,44.1,43.3,29.74,SSW,212,0.0,1.0,97,0.00,,,0.01,WUHU216DAVISVP2,2013-04-01 07:58:00,
2013-04-01 04:03:00,44.2,43.4,29.74,SSW,212,0.0,1.0,97,0.00,,,0.01,WUHU216DAVISVP2,2013-04-01 08:03:00,
2013-04-01 04:08:00,44.2,43.4,29.74,SSW,212,0.0,1.0,97,0.00,,,0.01,WUHU216DAVISVP2,2013-04-01 08:08:00,
2013-04-01 04:13:00,44.2,43.4,29.74,SSW,212,0.0,1.0,97,0.00,,,0.01,WUHU216DAVISVP2,2013-04-01 08:13:00,
2013-04-01 04:18:00,44.2,43.4,29.74,SSW,212,0.0,1.0,97,0.00,,,0.01,WUHU216DAVISVP2,2013-04-01 08:18:00,
2013-04-01 04:23:00,44.3,43.5,29.74,SSW,212,0.0,0.0,97,0.00,,,0.01,WUHU216DAVISVP2,2013-04-01 08:23:00,
2013-04-01 04:28:00,44.3,43.5,29.74,SSW,212,0.0,0.0,97,0.00,,,0.01,WUHU216DAVISVP2,2013-04-01 08:28:00,
2013-04-01 04:33:00,44.3,43.5,29.74,SSW,212,0.0,0.0,97,0.00,,,0.01,WUHU216DAVISVP2,2013-04-01 08:33:00,
2013-04-01 04:38:00,44.5,43.7,29.74,SSW,212,0.0,0.0,97,0.00,,,0.01,WUHU216DAVISVP2,2013-04-01 08:38:00,
2013-04-01 04:43:00,44.5,43.7,29.74,SSW,212,0.0,0.0,97,0.00,,,0.01,WUHU216DAVISVP2,2013-04-01 08:43:00,
2013-04-01 04:48:00,44.0,43.2,29.74,SSW,212,0.0,0.0,97,0.00,,,0.01,WUHU216DAVISVP2,2013-04-01 08:48:00,
2013-04-01 04:53:00,43.8,43.0,29.74,SSW,212,0.0,1.0,97,0.00,,,0.01,WUHU216DAVISVP2,2013-04-01 08:53:00,
2013-04-01 04:58:00,43.5,42.7,29.74,SSW,212,0.0,1.0,97,0.00,,,0.01,WUHU216DAVISVP2,2013-04-01 08:58:00,
2013-04-01 05:03:00,43.3,42.5,29.74,SSW,212,0.0,2.0,97,0.00,,,0.01,WUHU216DAVISVP2,2013-04-01 09:03:00,
2013-04-01 05:08:00,43.4,42.6,29.74,SSW,212,0.0,2.0,97,0.00,,,0.01,WUHU216DAVISVP2,2013-04-01 09:08:00,
2013-04-01 05:13:00,43.4,42.6,29.74,SSW,212,0.0,2.0,97,0.00,,,0.01,WUHU216DAVISVP2,2013-04-01 09:13:00,
2013-04-01 05:18:00,43.6,42.8,29.74,SSW,212,0.0,1.0,97,0.00,,,0.01,WUHU216DAVISVP2,2013-04-01 09:18:00,
2013-04-01 05:23:00,43.6,42.8,29.74,SSW,212,0.0,1.0,97,0.00,,,0.01,WUHU216DAVISVP2,2013-04-01 09:23:00,
2013-04-01 05:28:00,43.5,42.7,29.74,SSW,212,0.0,1.0,97,0.00,,,0.01,WUHU216DAVISVP2,2013-04-01 09:28:00,
2013-04-01 05:33:00,43.5,42.7,29.74,SSW,212,0.0,1.0,97,0.00,,,0.01,WUHU216DAVISVP2,2013-04-01 09:33:00,
2013-04-01 05:38:00,43.6,42.8,29.73,SSW,212,0.0,1.0,97,0.00,,,0.01,WUHU216DAVISVP2,2013-04-01 09:38:00,
2013-04-01 05:43:00,43.6,42.8,29.73,SSW,212,0.0,1.0,97,0.00,,,0.01,WUHU216DAVISVP2,2013-04-01 09:43:00,
2013-04-01 05:48:00,43.4,42.6,29.73,SSW,210,1.0,2.0,97,0.00,,,0.01,WUHU216DAVISVP2,2013-04-01 09:48:00,
2013-04-01 05:53:00,43.1,42.3,29.74,SSW,210,0.0,2.0,97,0.00,,,0.01,WUHU216DAVISVP2,2013-04-01 09:53:00,
2013-04-01 05:58:00,42.9,42.1,29.73,SSW,209,0.0,2.0,97,0.00,,,0.01,WUHU216DAVISVP2,2013-04-01 09:58:00,
2013-04-01 06:03:00,43.0,42.2,29.73,SSW,210,0.0,2.0,97,0.00,,,0.01,WUHU216DAVISVP2,2013-04-01 10:03:00,
2013-04-01 06:08:00,42.9,42.1,29.73,SSW,210,0.0,2.0,97,0.00,,,0.01,WUHU216DAVISVP2,2013-04-01 10:08:00,
2013-04-01 06:13:00,42.7,41.9,29.73,SSW,210,0.0,2.0,97,0.00,,,0.01,WUHU216DAVISVP2,2013-04-01 10:13:00,
2013-04-01 06:18:00,43.0,42.2,29.73,SSW,210,0.0,2.0,97,0.00,,,0.01,WUHU216DAVISVP2,2013-04-01 10:18:00,
2013-04-01 06:23:00,43.4,42.6,29.73,SSW,210,0.0,2.0,97,0.00,,,0.01,WUHU216DAVISVP2,2013-04-01 10:23:00,
2013-04-01 06:28:00,43.6,42.8,29.73,SSW,209,0.0,2.0,97,0.00,,,0.01,WUHU216DAVISVP2,2013-04-01 10:28:00,
2013-04-01 06:33:00,43.3,42.5,29.73,SSW,210,0.0,2.0,97,0.00,,,0.01,WUHU216DAVISVP2,2013-04-01 10:33:00,
2013-04-01 06:38:00,43.4,42.6,29.73,SSW,209,1.0,1.0,97,0.00,,,0.01,WUHU216DAVISVP2,2013-04-01 10:38:00,
2013-04-01 06:43:00,43.2,42.4,29.73,SSW,210,0.0,2.0,97,0.00,,,0.01,WUHU216DAVISVP2,2013-04-01 10:43:00,
2013-04-01 06:48:00,43.0,42.2,29.73,SSW,209,0.0,2.0,97,0.00,,,0.01,WUHU216DAVISVP2,2013-04-01 10:48:00,
2013-04-01 06:53:00,42.8,42.0,29.73,SSW,210,0.0,2.0,97,0.00,,,0.01,WUHU216DAVISVP2,2013-04-01 10:53:00,
2013-04-01 06:58:00,42.2,41.4,29.74,SSW,209,0.0,2.0,97,0.00,,,0.01,WUHU216DAVISVP2,2013-04-01 10:58:00,
2013-04-01 07:03:00,41.7,40.6,29.73,SSW,210,0.0,2.0,96,0.00,,,0.01,WUHU216DAVISVP2,2013-04-01 11:03:00,
2013-04-01 07:08:00,41.4,40.3,29.73,SSW,210,0.0,2.0,96,0.00,,,0.01,WUHU216DAVISVP2,2013-04-01 11:08:00,
2013-04-01 07:13:00,41.7,40.9,29.74,SSW,209,0.0,1.0,97,0.00,,,0.01,WUHU216DAVISVP2,2013-04-01 11:13:00,
2013-04-01 07:18:00,41.6,40.8,29.74,SSW,210,0.0,2.0,97,0.00,,,0.01,WUHU216DAVISVP2,2013-04-01 11:18:00,
2013-04-01 07:23:00,41.4,40.6,29.75,SSW,210,0.0,2.0,97,0.00,,,0.01,WUHU216DAVISVP2,2013-04-01 11:23:00,
2013-04-01 07:28:00,41.3,40.5,29.74,SSW,210,0.0,2.0,97,0.00,,,0.01,WUHU216DAVISVP2,2013-04-01 11:28:00,
2013-04-01 07:33:00,41.4,40.6,29.74,SSW,210,0.0,2.0,97,0.00,,,0.01,WUHU216DAVISVP2,2013-04-01 11:33:00,
2013-04-01 07:38:00,41.3,40.5,29.75,SSW,210,0.0,1.0,97,0.00,,,0.01,WUHU216DAVISVP2,2013-04-01 11:38:00,
2013-04-01 07:44:00,41.4,40.6,29.74,SSW,210,0.0,1.0,97,0.00,,,0.01,WUHU216DAVISVP2,2013-04-01 11:44:00,
2013-04-01 07:49:00,41.6,40.8,29.75,SSW,210,0.0,1.0,97,0.00,,,0.01,WUHU216DAVISVP2,2013-04-01 11:49:00,
2013-04-01 07:54:00,41.8,41.0,29.74,SSW,210,0.0,0.0,97,0.00,,,0.01,WUHU216DAVISVP2,2013-04-01 11:54:00,
2013-04-01 07:59:00,42.3,41.8,29.75,SSW,210,0.0,1.0,98,0.00,,,0.01,WUHU216DAVISVP2,2013-04-01 11:59:00,
2013-04-01 08:04:00,43.1,42.6,29.75,SSW,210,0.0,1.0,98,0.00,,,0.01,WUHU216DAVISVP2,2013-04-01 12:04:00,
2013-04-01 08:09:00,43.8,43.3,29.75,SSW,210,0.0,1.0,98,0.00,,,0.01,WUHU216DAVISVP2,2013-04-01 12:09:00,
2013-04-01 08:14:00,44.8,44.3,29.75,SSW,210,0.0,1.0,98,0.00,,,0.01,WUHU216DAVISVP2,2013-04-01 12:14:00,
2013-04-01 08:19:00,45.8,45.2,29.75,SSW,210,0.0,2.0,98,0.00,,,0.01,WUHU216DAVISVP2,2013-04-01 12:19:00,
2013-04-01 08:24:00,46.4,45.8,29.75,SSW,210,0.0,2.0,98,0.00,,,0.01,WUHU216DAVISVP2,2013-04-01 12:24:00,
2013-04-01 08:29:00,47.0,46.4,29.75,SSW,210,0.0,2.0,98,0.00,,,0.01,WUHU216DAVISVP2,2013-04-01 12:29:00,
2013-04-01 08:34:00,47.3,46.7,29.75,SSW,210,0.0,2.0,98,0.00,,,0.01,WUHU216DAVISVP2,2013-04-01 12:34:00,
2013-04-01 08:39:00,47.5,46.9,29.75,SSW,210,0.0,0.0,98,0.00,,,0.01,WUHU216DAVISVP2,2013-04-01 12:39:00,
2013-04-01 08:44:00,47.9,47.3,29.75,SSW,213,0.0,3.0,98,0.00,,,0.01,WUHU216DAVISVP2,2013-04-01 12:44:00,
2013-04-01 08:49:00,48.4,47.8,29.74,WSW,239,1.0,3.0,98,0.00,,,0.01,WUHU216DAVISVP2,2013-04-01 12:49:00,
2013-04-01 08:54:00,48.7,48.1,29.74,SW,226,1.0,3.0,98,0.00,,,0.01,WUHU216DAVISVP2,2013-04-01 12:54:00,
2013-04-01 08:59:00,49.1,48.5,29.74,West,259,3.0,4.0,98,0.00,,,0.01,WUHU216DAVISVP2,2013-04-01 12:59:00,
2013-04-01 09:04:00,49.6,49.0,29.74,SW,233,1.0,4.0,98,0.00,,,0.01,WUHU216DAVISVP2,2013-04-01 13:04:00,
2013-04-01 09:09:00,50.6,48.3,29.74,SW,214,3.0,6.0,92,0.00,,,0.01,WUHU216DAVISVP2,2013-04-01 13:09:00,
2013-04-01 09:14:00,51.3,47.5,29.74,South,191,3.0,6.0,87,0.00,,,0.01,WUHU216DAVISVP2,2013-04-01 13:14:00,
2013-04-01 09:19:00,52.1,46.8,29.74,SW,218,4.0,7.0,82,0.00,,,0.01,WUHU216DAVISVP2,2013-04-01 13:19:00,
2013-04-01 09:24:00,52.9,46.6,29.74,SW,229,4.0,8.0,79,0.00,,,0.01,WUHU216DAVISVP2,2013-04-01 13:24:00,
2013-04-01 09:29:00,53.8,46.5,29.74,South,179,3.0,11.0,76,0.00,,,0.01,WUHU216DAVISVP2,2013-04-01 13:29:00,
2013-04-01 09:34:00,54.6,46.2,29.73,SW,226,4.0,11.0,73,0.00,,,0.01,WUHU216DAVISVP2,2013-04-01 13:34:00,
2013-04-01 09:39:00,55.4,46.6,29.74,WSW,240,4.0,11.0,72,0.00,,,0.01,WUHU216DAVISVP2,2013-04-01 13:39:00,
2013-04-01 09:44:00,55.9,46.7,29.74,SW,217,3.0,11.0,71,0.00,,,0.01,WUHU216DAVISVP2,2013-04-01 13:44:00,
2013-04-01 09:49:00,56.5,46.6,29.73,SW,220,0.0,9.0,69,0.00,,,0.01,WUHU216DAVISVP2,2013-04-01 13:49:00,
2013-04-01 09:54:00,57.0,46.7,29.73,SW,220,2.0,9.0,68,0.00,,,0.01,WUHU216DAVISVP2,2013-04-01 13:54:00,
2013-04-01 09:59:00,57.7,46.6,29.73,SSW,210,0.0,9.0,66,0.00,,,0.01,WUHU216DAVISVP2,2013-04-01 13:59:00,
2013-04-01 10:04:00,58.6,47.0,29.73,SW,214,0.0,9.0,65,0.00,,,0.01,WUHU216DAVISVP2,2013-04-01 14:04:00,
2013-04-01 10:09:00,59.6,46.3,29.73,South,171,3.0,9.0,61,0.00,,,0.01,WUHU216DAVISVP2,2013-04-01 14:09:00,
2013-04-01 10:14:00,59.5,46.2,29.73,SW,215,3.0,12.0,61,0.00,,,0.01,WUHU216DAVISVP2,2013-04-01 14:14:00,
2013-04-01 10:19:00,59.7,45.5,29.73,WSW,246,9.0,12.0,59,0.00,,,0.01,WUHU216DAVISVP2,2013-04-01 14:19:00,
2013-04-01 10:24:00,60.0,46.6,29.73,SW,226,5.0,12.0,61,0.00,,,0.01,WUHU216DAVISVP2,2013-04-01 14:24:00,
2013-04-01 10:29:00,60.3,46.0,29.72,WSW,258,6.0,12.0,59,0.00,,,0.01,WUHU216DAVISVP2,2013-04-01 14:29:00,
2013-04-01 10:34:00,60.5,46.7,29.72,SW,216,1.0,10.0,60,0.00,,,0.01,WUHU216DAVISVP2,2013-04-01 14:34:00,
2013-04-01 10:39:00,61.5,46.2,29.72,SSW,206,5.0,9.0,57,0.00,,,0.01,WUHU216DAVISVP2,2013-04-01 14:39:00,
2013-04-01 10:44:00,62.3,45.5,29.72,WSW,238,3.0,9.0,54,0.00,,,0.01,WUHU216DAVISVP2,2013-04-01 14:44:00,
2013-04-01 10:49:00,62.9,46.6,29.72,SW,215,2.0,9.0,55,0.00,,,0.01,WUHU216DAVISVP2,2013-04-01 14:49:00,
2013-04-01 10:54:00,63.5,44.0,29.72,SW,231,5.0,9.0,49,0.00,,,0.01,WUHU216DAVISVP2,2013-04-01 14:54:00,
2013-04-01 10:59:00,63.9,44.9,29.72,WSW,243,5.0,9.0,50,0.00,,,0.01,WUHU216DAVISVP2,2013-04-01 14:59:00,
2013-04-01 11:04:00,64.5,43.8,29.72,South,185,4.0,9.0,47,0.00,,,0.01,WUHU216DAVISVP2,2013-04-01 15:04:00,
2013-04-01 11:09:00,64.7,43.4,29.72,SW,230,8.0,11.0,46,0.00,,,0.01,WUHU216DAVISVP2,2013-04-01 15:09:00,
2013-04-01 11:14:00,64.0,42.2,29.71,West,264,3.0,11.0,45,0.00,,,0.01,WUHU216DAVISVP2,2013-04-01 15:14:00,
2013-04-01 11:19:00,64.3,43.0,29.71,SW,216,2.0,11.0,46,0.00,,,0.01,WUHU216DAVISVP2,2013-04-01 15:19:00,
2013-04-01 11:24:00,65.1,41.3,29.71,WSW,253,2.0,11.0,42,0.00,,,0.01,WUHU216DAVISVP2,2013-04-01 15:24:00,
2013-04-01 11:29:00,65.3,41.5,29.71,West,270,5.0,10.0,42,0.00,,,0.01,WUHU216DAVISVP2,2013-04-01 15:29:00,
2013-04-01 11:34:00,64.6,41.5,29.71,West,260,4.0,9.0,43,0.00,,,0.01,WUHU216DAVISVP2,2013-04-01 15:34:00,
2013-04-01 11:39:00,64.6,41.5,29.71,SW,222,8.0,10.0,43,0.00,,,0.01,WUHU216DAVISVP2,2013-04-01 15:39:00,
2013-04-01 11:44:00,65.0,41.2,29.71,WSW,243,1.0,10.0,42,0.00,,,0.01,WUHU216DAVISVP2,2013-04-01 15:44:00,
2013-04-01 11:49:00,64.8,41.7,29.71,SW,233,3.0,10.0,43,0.00,,,0.01,WUHU216DAVISVP2,2013-04-01 15:49:00,
2013-04-01 11:54:00,64.7,42.2,29.71,SW,218,8.0,11.0,44,0.00,,,0.01,WUHU216DAVISVP2,2013-04-01 15:54:00,
2013-04-01 11:59:00,65.0,43.1,29.71,WSW,242,4.0,11.0,45,0.00,,,0.01,WUHU216DAVISVP2,2013-04-01 15:59:00,
2013-04-01 12:04:00,65.7,42.5,29.71,SW,218,2.0,11.0,43,0.00,,,0.01,WUHU216DAVISVP2,2013-04-01 16:04:00,
2013-04-01 12:10:00,66.4,43.1,29.70,SW,222,3.0,9.0,43,0.00,,,0.01,WUHU216DAVISVP2,2013-04-01 16:10:00,
2013-04-01 12:15:00,66.6,43.3,29.70,SW,222,5.0,10.0,43,0.00,,,0.01,WUHU216DAVISVP2,2013-04-01 16:15:00,
2013-04-01 12:20:00,67.3,43.3,29.70,SSW,208,4.0,11.0,42,0.00,,,0.01,WUHU216DAVISVP2,2013-04-01 16:20:00,
2013-04-01 12:25:00,66.7,43.4,29.70,NW,320,2.0,11.0,43,0.00,,,0.01,WUHU216DAVISVP2,2013-04-01 16:25:00,
2013-04-01 12:30:00,65.9,42.7,29.69,SW,220,3.0,11.0,43,0.00,,,0.01,WUHU216DAVISVP2,2013-04-01 16:30:00,
2013-04-01 12:35:00,65.2,41.4,29.69,WSW,258,4.0,11.0,42,0.00,,,0.01,WUHU216DAVISVP2,2013-04-01 16:35:00,
2013-04-01 12:40:00,65.4,41.6,29.69,WNW,302,3.0,9.0,42,0.00,,,0.01,WUHU216DAVISVP2,2013-04-01 16:40:00,
2013-04-01 12:45:00,65.6,41.1,29.69,NW,321,1.0,9.0,41,0.00,,,0.01,WUHU216DAVISVP2,2013-04-01 16:45:00,
2013-04-01 12:50:00,67.0,42.4,29.68,WNW,288,2.0,9.0,41,0.00,,,0.01,WUHU216DAVISVP2,2013-04-01 16:50:00,
2013-04-01 12:55:00,67.2,42.6,29.68,NNW,327,5.0,11.0,41,0.00,,,0.01,WUHU216DAVISVP2,2013-04-01 16:55:00,
2013-04-01 13:00:00,66.5,42.6,29.68,NW,314,7.0,11.0,42,0.00,,,0.01,WUHU216DAVISVP2,2013-04-01 17:00:00,
2013-04-01 13:05:00,65.5,42.3,29.69,West,277,2.0,11.0,43,0.00,,,0.01,WUHU216DAVISVP2,2013-04-01 17:05:00,
2013-04-01 13:10:00,64.9,41.8,29.68,WSW,241,3.0,11.0,43,0.00,,,0.01,WUHU216DAVISVP2,2013-04-01 17:10:00,
2013-04-01 13:16:00,64.8,41.1,29.68,West,261,7.0,12.0,42,0.00,,,0.01,WUHU216DAVISVP2,2013-04-01 17:16:00,
2013-04-01 13:21:00,64.8,41.7,29.68,WSW,251,3.0,12.0,43,0.00,,,0.01,WUHU216DAVISVP2,2013-04-01 17:21:00,
2013-04-01 13:26:00,65.4,41.6,29.68,WNW,284,1.0,12.0,42,0.00,,,0.01,WUHU216DAVISVP2,2013-04-01 17:26:00,
2013-04-01 13:31:00,65.9,42.1,29.68,WNW,302,2.0,12.0,42,0.00,,,0.01,WUHU216DAVISVP2,2013-04-01 17:31:00,
2013-04-01 13:36:00,66.8,42.2,29.68,SSW,211,2.0,12.0,41,0.00,,,0.01,WUHU216DAVISVP2,2013-04-01 17:36:00,
2013-04-01 13:41:00,66.8,42.9,29.68,SW,222,3.0,13.0,42,0.00,,,0.01,WUHU216DAVISVP2,2013-04-01 17:41:00,
2013-04-01 13:46:00,66.8,41.6,29.67,SW,222,3.0,13.0,40,0.00,,,0.01,WUHU216DAVISVP2,2013-04-01 17:46:00,
2013-04-01 13:51:00,66.5,40.6,29.67,West,260,9.0,14.0,39,0.00,,,0.01,WUHU216DAVISVP2,2013-04-01 17:51:00,
2013-04-01 13:57:00,65.8,40.7,29.67,SW,231,3.0,14.0,40,0.00,,,0.01,WUHU216DAVISVP2,2013-04-01 17:57:00,
2013-04-01 14:02:00,65.4,41.0,29.67,West,261,0.0,14.0,41,0.00,,,0.01,WUHU216DAVISVP2,2013-04-01 18:02:00,
2013-04-01 14:07:00,65.4,41.0,29.67,SSW,207,1.0,14.0,41,0.00,,,0.01,WUHU216DAVISVP2,2013-04-01 18:07:00,
2013-04-01 14:12:00,65.7,40.7,29.67,WSW,242,7.0,10.0,40,0.00,,,0.01,WUHU216DAVISVP2,2013-04-01 18:12:00,
2013-04-01 14:17:00,65.8,39.5,29.67,WNW,284,4.0,11.0,38,0.00,,,0.01,WUHU216DAVISVP2,2013-04-01 18:17:00,
2013-04-01 14:22:00,65.4,39.6,29.67,WSW,245,6.0,13.0,39,0.00,,,0.01,WUHU216DAVISVP2,2013-04-01 18:22:00,
2013-04-01 14:27:00,64.9,39.2,29.67,North,10,6.0,13.0,39,0.00,,,0.01,WUHU216DAVISVP2,2013-04-01 18:27:00,
2013-04-01 14:32:00,64.6,40.2,29.67,WSW,249,7.0,13.0,41,0.00,,,0.01,WUHU216DAVISVP2,2013-04-01 18:32:00,
2013-04-01 14:37:00,64.2,40.5,29.67,WNW,302,8.0,13.0,42,0.00,,,0.01,WUHU216DAVISVP2,2013-04-01 18:37:00,
2013-04-01 14:42:00,63.7,40.1,29.67,West,281,5.0,15.0,42,0.00,,,0.01,WUHU216DAVISVP2,2013-04-01 18:42:00,
2013-04-01 14:47:00,63.5,39.9,29.67,NW,320,4.0,15.0,42,0.00,,,0.01,WUHU216DAVISVP2,2013-04-01 18:47:00,
2013-04-01 14:52:00,63.4,40.4,29.67,North,354,6.0,15.0,43,0.00,,,0.01,WUHU216DAVISVP2,2013-04-01 18:52:00,
2013-04-01 14:57:00,62.7,39.8,29.68,SSW,207,5.0,15.0,43,0.00,,,0.01,WUHU216DAVISVP2,2013-04-01 18:57:00,
2013-04-01 15:02:00,62.4,40.8,29.68,WSW,243,5.0,15.0,45,0.00,,,0.01,WUHU216DAVISVP2,2013-04-01 19:02:00,
2013-04-01 15:07:00,62.4,40.2,29.68,WNW,295,1.0,15.0,44,0.00,,,0.01,WUHU216DAVISVP2,2013-04-01 19:07:00,
2013-04-01 15:12:00,62.3,40.1,29.68,WSW,254,8.0,15.0,44,0.00,,,0.01,WUHU216DAVISVP2,2013-04-01 19:12:00,
2013-04-01 15:17:00,62.2,40.6,29.68,West,277,12.0,18.0,45,0.00,,,0.01,WUHU216DAVISVP2,2013-04-01 19:17:00,
2013-04-01 15:22:00,61.9,40.9,29.69,WSW,237,4.0,18.0,46,0.00,,,0.01,WUHU216DAVISVP2,2013-04-01 19:22:00,
2013-04-01 15:27:00,62.1,41.6,29.69,WNW,287,2.0,18.0,47,0.00,,,0.01,WUHU216DAVISVP2,2013-04-01 19:27:00,
2013-04-01 15:32:00,60.7,41.4,29.69,NW,314,5.0,19.0,49,0.00,,,0.01,WUHU216DAVISVP2,2013-04-01 19:32:00,
2013-04-01 15:37:00,59.5,41.3,29.69,WNW,302,14.0,19.0,51,0.00,,,0.01,WUHU216DAVISVP2,2013-04-01 19:37:00,
2013-04-01 15:42:00,58.9,41.3,29.70,WNW,303,11.0,19.0,52,0.00,,,0.01,WUHU216DAVISVP2,2013-04-01 19:42:00,
2013-04-01 15:48:00,58.5,40.9,29.71,NNW,346,10.0,19.0,52,0.00,,,0.01,WUHU216DAVISVP2,2013-04-01 19:48:00,
2013-04-01 15:53:00,57.8,40.8,29.71,West,261,7.0,17.0,53,0.00,,,0.01,WUHU216DAVISVP2,2013-04-01 19:53:00,
2013-04-01 15:58:00,57.6,40.6,29.72,NNW,331,2.0,15.0,53,0.00,,,0.01,WUHU216DAVISVP2,2013-04-01 19:58:00,
2013-04-01 16:03:00,57.6,40.6,29.72,NW,322,5.0,16.0,53,0.00,,,0.01,WUHU216DAVISVP2,2013-04-01 20:03:00,
2013-04-01 16:08:00,57.7,40.7,29.72,NW,308,5.0,16.0,53,0.00,,,0.01,WUHU216DAVISVP2,2013-04-01 20:08:00,
2013-04-01 16:13:00,57.6,40.1,29.72,NW,322,8.0,16.0,52,0.00,,,0.01,WUHU216DAVISVP2,2013-04-01 20:13:00,
2013-04-01 16:18:00,58.1,40.1,29.72,NW,311,11.0,16.0,51,0.00,,,0.01,WUHU216DAVISVP2,2013-04-01 20:18:00,
2013-04-01 16:23:00,57.8,40.3,29.72,West,279,6.0,16.0,52,0.00,,,0.01,WUHU216DAVISVP2,2013-04-01 20:23:00,
2013-04-01 16:28:00,57.0,38.5,29.72,WNW,289,6.0,18.0,50,0.00,,,0.01,WUHU216DAVISVP2,2013-04-01 20:28:00,
2013-04-01 16:33:00,56.8,38.9,29.72,West,276,6.0,18.0,51,0.00,,,0.01,WUHU216DAVISVP2,2013-04-01 20:33:00,
2013-04-01 16:38:00,56.9,39.5,29.72,WNW,297,5.0,18.0,52,0.00,,,0.01,WUHU216DAVISVP2,2013-04-01 20:38:00,
2013-04-01 16:43:00,56.6,38.2,29.73,WSW,247,4.0,18.0,50,0.00,,,0.01,WUHU216DAVISVP2,2013-04-01 20:43:00,
2013-04-01 16:48:00,56.4,38.5,29.73,NW,316,2.0,13.0,51,0.00,,,0.01,WUHU216DAVISVP2,2013-04-01 20:48:00,
2013-04-01 16:53:00,56.1,38.2,29.73,NW,318,6.0,14.0,51,0.00,,,0.01,WUHU216DAVISVP2,2013-04-01 20:53:00,
2013-04-01 16:58:00,55.8,37.9,29.74,WNW,288,10.0,16.0,51,0.00,,,0.01,WUHU216DAVISVP2,2013-04-01 20:58:00,
2013-04-01 17:03:00,55.3,37.5,29.74,North,8,7.0,16.0,51,0.00,,,0.01,WUHU216DAVISVP2,2013-04-01 21:03:00,
2013-04-01 17:08:00,55.4,38.1,29.74,West,271,8.0,16.0,52,0.00,,,0.01,WUHU216DAVISVP2,2013-04-01 21:08:00,
2013-04-01 17:13:00,55.3,37.5,29.74,WNW,285,6.0,16.0,51,0.00,,,0.01,WUHU216DAVISVP2,2013-04-01 21:13:00,
2013-04-01 17:18:00,55.1,37.3,29.74,NNW,343,5.0,14.0,51,0.00,,,0.01,WUHU216DAVISVP2,2013-04-01 21:18:00,
2013-04-01 17:23:00,55.1,36.8,29.75,NW,305,9.0,14.0,50,0.00,,,0.01,WUHU216DAVISVP2,2013-04-01 21:23:00,
2013-04-01 17:28:00,55.7,37.9,29.75,NNE,12,1.0,14.0,51,0.00,,,0.01,WUHU216DAVISVP2,2013-04-01 21:28:00,
2013-04-01 17:33:00,55.8,36.4,29.75,North,4,3.0,15.0,48,0.00,,,0.01,WUHU216DAVISVP2,2013-04-01 21:33:00,
2013-04-01 17:38:00,55.6,36.2,29.75,SW,236,3.0,15.0,48,0.00,,,0.01,WUHU216DAVISVP2,2013-04-01 21:38:00,
2013-04-01 17:43:00,55.3,36.4,29.76,NNE,18,7.0,15.0,49,0.00,,,0.01,WUHU216DAVISVP2,2013-04-01 21:43:00,
2013-04-01 17:48:00,54.9,35.5,29.76,WNW,299,6.0,15.0,48,0.00,,,0.01,WUHU216DAVISVP2,2013-04-01 21:48:00,
2013-04-01 17:53:00,54.8,34.3,29.77,WSW,252,2.0,17.0,46,0.00,,,0.01,WUHU216DAVISVP2,2013-04-01 21:53:00,
2013-04-01 17:58:00,55.1,34.0,29.76,WSW,258,2.0,17.0,45,0.00,,,0.01,WUHU216DAVISVP2,2013-04-01 21:58:00,
2013-04-01 18:03:00,55.3,33.6,29.77,NW,307,6.0,17.0,44,0.00,,,0.01,WUHU216DAVISVP2,2013-04-01 22:03:00,
2013-04-01 18:08:00,55.1,34.6,29.77,WNW,287,7.0,17.0,46,0.00,,,0.01,WUHU216DAVISVP2,2013-04-01 22:08:00,
2013-04-01 18:13:00,54.8,34.3,29.77,North,359,5.0,13.0,46,0.00,,,0.01,WUHU216DAVISVP2,2013-04-01 22:13:00,
2013-04-01 18:18:00,54.6,33.6,29.78,NW,305,4.0,13.0,45,0.00,,,0.01,WUHU216DAVISVP2,2013-04-01 22:18:00,
2013-04-01 18:23:00,54.2,32.6,29.78,West,274,5.0,13.0,44,0.00,,,0.01,WUHU216DAVISVP2,2013-04-01 22:23:00,
2013-04-01 18:28:00,54.0,32.5,29.79,West,275,5.0,15.0,44,0.00,,,0.01,WUHU216DAVISVP2,2013-04-01 22:28:00,
2013-04-01 18:33:00,53.5,31.4,29.79,NW,311,7.0,15.0,43,0.00,,,0.01,WUHU216DAVISVP2,2013-04-01 22:33:00,
2013-04-01 18:38:00,53.0,31.0,29.79,NNE,22,6.0,21.0,43,0.00,,,0.01,WUHU216DAVISVP2,2013-04-01 22:38:00,
2013-04-01 18:43:00,52.8,31.4,29.79,North,354,9.0,21.0,44,0.00,,,0.01,WUHU216DAVISVP2,2013-04-01 22:43:00,
2013-04-01 18:48:00,52.6,31.8,29.80,West,260,13.0,21.0,45,0.00,,,0.01,WUHU216DAVISVP2,2013-04-01 22:48:00,
2013-04-01 18:53:00,52.4,31.6,29.80,WNW,289,8.0,18.0,45,0.00,,,0.01,WUHU216DAVISVP2,2013-04-01 22:53:00,
2013-04-01 18:58:00,52.1,32.4,29.80,NW,305,5.0,17.0,47,0.00,,,0.01,WUHU216DAVISVP2,2013-04-01 22:58:00,
2013-04-01 19:03:00,51.9,31.7,29.81,NW,314,8.0,17.0,46,0.00,,,0.01,WUHU216DAVISVP2,2013-04-01 23:03:00,
2013-04-01 19:08:00,51.4,31.2,29.81,WNW,303,12.0,17.0,46,0.00,,,0.01,WUHU216DAVISVP2,2013-04-01 23:08:00,
2013-04-01 19:13:00,51.0,31.4,29.81,WNW,303,18.0,18.0,47,0.00,,,0.01,WUHU216DAVISVP2,2013-04-01 23:13:00,
2013-04-01 19:18:00,50.5,30.4,29.81,North,4,9.0,18.0,46,0.00,,,0.01,WUHU216DAVISVP2,2013-04-01 23:18:00,
2013-04-01 19:23:00,50.0,30.5,29.82,NNW,328,10.0,18.0,47,0.00,,,0.01,WUHU216DAVISVP2,2013-04-01 23:23:00,
2013-04-01 19:28:00,49.7,30.2,29.82,NNW,337,7.0,18.0,47,0.00,,,0.01,WUHU216DAVISVP2,2013-04-01 23:28:00,
2013-04-01 19:33:00,49.5,30.0,29.82,WNW,296,8.0,18.0,47,0.00,,,0.01,WUHU216DAVISVP2,2013-04-01 23:33:00,
2013-04-01 19:38:00,49.4,29.9,29.83,NW,320,5.0,18.0,47,0.00,,,0.01,WUHU216DAVISVP2,2013-04-01 23:38:00,
2013-04-01 19:43:00,49.2,29.7,29.83,NW,314,7.0,18.0,47,0.00,,,0.01,WUHU216DAVISVP2,2013-04-01 23:43:00,
2013-04-01 19:48:00,49.1,29.1,29.83,NW,315,8.0,18.0,46,0.00,,,0.01,WUHU216DAVISVP2,2013-04-01 23:48:00,
2013-04-01 19:53:00,48.9,29.5,29.84,North,359,6.0,18.0,47,0.00,,,0.01,WUHU216DAVISVP2,2013-04-01 23:53:00,
2013-04-01 19:58:00,48.8,28.8,29.85,West,266,3.0,18.0,46,0.00,,,0.01,WUHU216DAVISVP2,2013-04-01 23:58:00,
2013-04-01 20:03:00,48.6,29.2,29.85,WNW,289,4.0,18.0,47,0.00,,,0.01,WUHU216DAVISVP2,2013-04-02 00:03:00,
2013-04-01 20:08:00,48.5,29.1,29.85,West,279,5.0,15.0,47,0.00,,,0.01,WUHU216DAVISVP2,2013-04-02 00:08:00,
2013-04-01 20:13:00,48.4,29.0,29.86,West,281,9.0,15.0,47,0.00,,,0.01,WUHU216DAVISVP2,2013-04-02 00:13:00,
2013-04-01 20:18:00,48.3,28.9,29.86,North,349,1.0,15.0,47,0.00,,,0.01,WUHU216DAVISVP2,2013-04-02 00:18:00,
2013-04-01 20:23:00,48.2,28.8,29.86,NW,308,2.0,15.0,47,0.00,,,0.01,WUHU216DAVISVP2,2013-04-02 00:23:00,
2013-04-01 20:28:00,48.0,28.6,29.87,WNW,299,9.0,14.0,47,0.00,,,0.01,WUHU216DAVISVP2,2013-04-02 00:28:00,
2013-04-01 20:33:00,47.9,28.5,29.87,WNW,299,4.0,14.0,47,0.00,,,0.01,WUHU216DAVISVP2,2013-04-02 00:33:00,
2013-04-01 20:38:00,47.8,27.4,29.87,WNW,299,2.0,9.0,45,0.00,,,0.01,WUHU216DAVISVP2,2013-04-02 00:38:00,
2013-04-01 20:43:00,47.8,27.9,29.88,WNW,293,1.0,9.0,46,0.00,,,0.01,WUHU216DAVISVP2,2013-04-02 00:43:00,
2013-04-01 20:48:00,47.6,28.3,29.88,North,10,3.0,9.0,47,0.00,,,0.01,WUHU216DAVISVP2,2013-04-02 00:48:00,
2013-04-01 20:53:00,47.4,27.5,29.88,West,274,6.0,9.0,46,0.00,,,0.01,WUHU216DAVISVP2,2013-04-02 00:53:00,
2013-04-01 20:58:00,47.5,26.5,29.88,NW,318,9.0,15.0,44,0.00,,,0.01,WUHU216DAVISVP2,2013-04-02 00:58:00,
2013-04-01 21:03:00,47.5,27.1,29.89,West,263,4.0,15.0,45,0.00,,,0.01,WUHU216DAVISVP2,2013-04-02 01:03:00,
2013-04-01 21:09:00,47.2,27.4,29.89,NW,324,4.0,15.0,46,0.00,,,0.01,WUHU216DAVISVP2,2013-04-02 01:09:00,
2013-04-01 21:14:00,47.1,26.7,29.89,WNW,287,5.0,15.0,45,0.00,,,0.01,WUHU216DAVISVP2,2013-04-02 01:14:00,
2013-04-01 21:19:00,47.0,26.1,29.89,WNW,287,6.0,13.0,44,0.00,,,0.01,WUHU216DAVISVP2,2013-04-02 01:19:00,
2013-04-01 21:24:00,47.0,26.1,29.90,WNW,297,5.0,13.0,44,0.00,,,0.01,WUHU216DAVISVP2,2013-04-02 01:24:00,
2013-04-01 21:29:00,46.8,25.9,29.90,NW,314,4.0,13.0,44,0.00,,,0.01,WUHU216DAVISVP2,2013-04-02 01:29:00,
2013-04-01 21:34:00,46.8,25.9,29.90,WNW,291,1.0,13.0,44,0.00,,,0.01,WUHU216DAVISVP2,2013-04-02 01:34:00,
2013-04-01 21:39:00,46.7,25.8,29.91,NW,310,0.0,11.0,44,0.00,,,0.01,WUHU216DAVISVP2,2013-04-02 01:39:00,
2013-04-01 21:44:00,46.6,25.7,29.91,WNW,285,0.0,11.0,44,0.00,,,0.01,WUHU216DAVISVP2,2013-04-02 01:44:00,
2013-04-01 21:49:00,46.4,26.1,29.91,NW,326,2.0,9.0,45,0.00,,,0.01,WUHU216DAVISVP2,2013-04-02 01:49:00,
2013-04-01 21:54:00,46.2,25.3,29.91,WNW,293,0.0,6.0,44,0.00,,,0.01,WUHU216DAVISVP2,2013-04-02 01:54:00,
2013-04-01 21:59:00,46.1,25.3,29.91,WNW,291,4.0,6.0,44,0.00,,,0.01,WUHU216DAVISVP2,2013-04-02 01:59:00,
2013-04-01 22:04:00,46.0,25.7,29.91,NW,320,1.0,6.0,45,0.00,,,0.01,WUHU216DAVISVP2,2013-04-02 02:04:00,
2013-04-01 22:09:00,45.8,25.5,29.92,WNW,287,1.0,6.0,45,0.00,,,0.01,WUHU216DAVISVP2,2013-04-02 02:09:00,
2013-04-01 22:14:00,45.7,25.4,29.92,WNW,289,2.0,7.0,45,0.00,,,0.01,WUHU216DAVISVP2,2013-04-02 02:14:00,
2013-04-01 22:19:00,45.6,24.8,29.92,WNW,289,4.0,7.0,44,0.00,,,0.01,WUHU216DAVISVP2,2013-04-02 02:19:00,
2013-04-01 22:24:00,45.5,24.7,29.92,NW,313,1.0,7.0,44,0.00,,,0.01,WUHU216DAVISVP2,2013-04-02 02:24:00,
2013-04-01 22:29:00,45.5,24.7,29.92,NNW,337,2.0,8.0,44,0.00,,,0.01,WUHU216DAVISVP2,2013-04-02 02:29:00,
2013-04-01 22:34:00,45.4,24.6,29.92,NNE,12,2.0,8.0,44,0.00,,,0.01,WUHU216DAVISVP2,2013-04-02 02:34:00,
2013-04-01 22:39:00,45.4,24.6,29.92,NNW,343,2.0,10.0,44,0.00,,,0.01,WUHU216DAVISVP2,2013-04-02 02:39:00,
2013-04-01 22:44:00,45.1,24.3,29.92,NW,310,3.0,10.0,44,0.00,,,0.01,WUHU216DAVISVP2,2013-04-02 02:44:00,
2013-04-01 22:49:00,45.0,24.2,29.92,North,10,3.0,10.0,44,0.00,,,0.01,WUHU216DAVISVP2,2013-04-02 02:49:00,
2013-04-01 22:54:00,44.8,24.6,29.93,WNW,294,0.0,7.0,45,0.00,,,0.01,WUHU216DAVISVP2,2013-04-02 02:54:00,
2013-04-01 22:59:00,44.6,23.9,29.93,NW,315,0.0,5.0,44,0.00,,,0.01,WUHU216DAVISVP2,2013-04-02 02:59:00,
2013-04-01 23:04:00,44.4,24.3,29.93,ENE,61,2.0,5.0,45,0.00,,,0.01,WUHU216DAVISVP2,2013-04-02 03:04:00,
2013-04-01 23:09:00,44.3,23.6,29.93,WNW,302,3.0,5.0,44,0.00,,,0.01,WUHU216DAVISVP2,2013-04-02 03:09:00,
2013-04-01 23:14:00,44.1,24.0,29.93,WNW,295,2.0,5.0,45,0.00,,,0.01,WUHU216DAVISVP2,2013-04-02 03:14:00,
2013-04-01 23:19:00,44.0,23.9,29.93,NW,308,3.0,6.0,45,0.00,,,0.01,WUHU216DAVISVP2,2013-04-02 03:19:00,
2013-04-01 23:24:00,43.8,23.8,29.93,WNW,293,2.0,6.0,45,0.00,,,0.01,WUHU216DAVISVP2,2013-04-02 03:24:00,
2013-04-01 23:29:00,43.7,23.7,29.94,WNW,287,2.0,6.0,45,0.00,,,0.01,WUHU216DAVISVP2,2013-04-02 03:29:00,
2013-04-01 23:34:00,43.6,23.6,29.93,WNW,289,2.0,6.0,45,0.00,,,0.01,WUHU216DAVISVP2,2013-04-02 03:34:00,
2013-04-01 23:39:00,43.5,23.4,29.94,NW,305,4.0,6.0,45,0.00,,,0.01,WUHU216DAVISVP2,2013-04-02 03:39:00,
2013-04-01 23:44:00,43.4,23.3,29.94,NNW,339,4.0,6.0,45,0.00,,,0.01,WUHU216DAVISVP2,2013-04-02 03:44:00,
2013-04-01 23:49:00,43.4,23.3,29.94,WNW,301,4.0,7.0,45,0.00,,,0.01,WUHU216DAVISVP2,2013-04-02 03:49:00,
2013-04-01 23:54:00,43.3,23.2,29.94,NW,305,3.0,7.0,45,0.00,,,0.01,WUHU216DAVISVP2,2013-04-02 03:54:00,
2013-04-01 23:59:00,43.4,22.8,29.94,NW,308,7.0,8.0,44,0.00,,,0.01,WUHU216DAVISVP2,2013-04-02 03:59:00,